Location: Newark
(39.6867°N, 100.6772°W)
Time: 09:00:22
(UTC+00:00)

Explorer 7 - All Passes

Search period start: 14 October 2019 00:00
Search period end: 24 October 2019 00:00
Orbit: 485 x 680 km, 50.3° (Epoch: 13 October)

Date Brightness Start Highest point End Pass type
(mag) Time Alt. Az. Time Alt. Az. Time Alt. Az.
14 Oct - 00:13:05 10° NW 00:16:09 21° NNE 00:19:21 10° ENE daylight
14 Oct - 01:53:14 10° NW 01:57:19 54° NNE 02:01:40 10° ESE visible
14 Oct - 03:34:03 10° WNW 03:37:43 27° SW 03:41:34 10° SSE visible
14 Oct - 19:14:29 10° SSW 19:17:58 38° SE 19:21:31 10° ENE daylight
14 Oct - 20:54:58 10° W 20:58:28 35° NNW 21:02:05 10° NE daylight
14 Oct - 22:37:07 10° NW 22:39:51 18° N 22:42:39 10° NE daylight
15 Oct - 00:18:04 10° NW 00:21:24 24° NNE 00:24:53 10° ENE daylight
15 Oct - 01:58:12 10° NW 02:02:21 83° NNE 02:06:48 10° ESE visible
15 Oct - 03:39:46 10° W 03:42:33 17° SW 03:45:24 10° S visible
15 Oct - 19:19:10 10° SW 19:22:53 68° SE 19:26:41 10° ENE daylight
15 Oct - 21:00:25 10° WNW 21:03:39 26° NNW 21:06:59 10° NE daylight
15 Oct - 22:42:28 10° NW 22:45:09 17° N 22:47:56 10° NE daylight
16 Oct - 00:23:00 10° NW 00:26:36 30° NNE 00:30:24 10° E visible
16 Oct - 02:03:14 10° WNW 02:07:20 62° SW 02:11:43 10° SE visible
16 Oct - 17:45:36 10° SSE 17:47:49 15° SE 17:50:03 10° E daylight
16 Oct - 19:24:09 10° WSW 19:27:52 71° NNW 19:31:41 10° NE daylight
16 Oct - 21:05:56 10° WNW 21:08:53 21° NNW 21:11:56 10° NE daylight
16 Oct - 22:47:40 10° NW 22:50:28 18° N 22:53:21 10° NE daylight
17 Oct - 00:27:55 10° NW 00:31:45 41° NNE 00:35:49 10° E visible
17 Oct - 02:08:24 10° WNW 02:12:16 37° SW 02:16:20 10° SSE visible
17 Oct - 17:49:27 10° SSW 17:52:38 26° SE 17:55:48 10° ENE daylight
17 Oct - 19:29:20 10° WSW 19:32:56 45° NNW 19:36:37 10° NE daylight
17 Oct - 21:11:27 10° NW 21:14:09 18° N 21:16:57 10° NE daylight
17 Oct - 22:52:44 10° NW 22:55:45 21° NNE 22:58:52 10° ENE daylight
18 Oct - 00:32:50 10° NW 00:36:50 61° NNE 00:41:04 10° ESE visible
18 Oct - 02:13:50 10° W 02:17:07 22° SW 02:20:33 10° S visible
18 Oct - 17:53:54 10° SSW 17:57:30 46° SE 18:01:07 10° ENE daylight
18 Oct - 19:34:41 10° W 19:38:04 31° NNW 19:41:31 10° NE daylight
18 Oct - 21:16:53 10° NW 21:19:28 17° N 21:22:06 10° NE daylight
18 Oct - 22:57:41 10° NW 23:00:59 25° NNE 23:04:24 10° ENE daylight
19 Oct - 00:37:48 10° NW 00:41:51 85° SSW 00:46:08 10° SE visible
19 Oct - 02:19:53 10° W 02:21:56 13° SW 02:24:01 10° SSW visible
19 Oct - 16:22:08 10° SE 16:22:31 10° SE 16:22:54 10° ESE daylight
19 Oct - 17:58:41 10° SW 18:02:26 81° SE 18:06:12 10° ENE daylight
19 Oct - 19:40:10 10° WNW 19:43:16 24° NNW 19:46:25 10° NE daylight
19 Oct - 21:22:11 10° NW 21:24:47 17° N 21:27:25 10° NE daylight
19 Oct - 23:02:35 10° NW 23:06:10 32° NNE 23:09:54 10° E daylight
20 Oct - 00:42:52 10° WNW 00:46:48 51° SW 00:50:57 10° SE visible
20 Oct - 16:24:37 10° S 16:27:17 18° SE 16:29:56 10° E daylight
20 Oct - 18:03:43 10° WSW 18:07:26 60° NNW 18:11:11 10° NE daylight
20 Oct - 19:45:42 10° WNW 19:48:30 20° NNW 19:51:22 10° NE daylight
20 Oct - 21:27:20 10° NW 21:30:04 18° N 21:32:53 10° NE daylight
20 Oct - 23:07:29 10° NW 23:11:17 45° NNE 23:15:16 10° ESE daylight
21 Oct - 00:48:07 10° WNW 00:51:41 30° SW 00:55:27 10° SSE visible
21 Oct - 16:28:43 10° SSW 16:32:07 31° SE 16:35:28 10° ENE daylight
21 Oct - 18:08:58 10° W 18:12:31 39° NNW 18:16:05 10° NE daylight
21 Oct - 19:51:12 10° NW 19:53:47 17° N 19:56:24 10° NE daylight
21 Oct - 21:32:20 10° NW 21:35:20 21° NNE 21:38:25 10° ENE daylight
21 Oct - 23:12:24 10° NW 23:16:19 70° NNE 23:20:28 10° ESE daylight
22 Oct - 00:53:42 10° W 00:56:32 18° SW 00:59:27 10° S visible
22 Oct - 16:33:17 10° SW 16:37:01 56° SE 16:40:41 10° ENE daylight
22 Oct - 18:14:23 10° W 18:17:40 28° NNW 18:20:58 10° NE daylight
22 Oct - 19:56:37 10° NW 19:59:05 16° N 20:01:36 10° NE daylight
22 Oct - 21:37:16 10° NW 21:40:33 26° NNE 21:43:57 10° E daylight
22 Oct - 23:17:24 10° WNW 23:21:19 72° SW 23:25:27 10° SE daylight
23 Oct - 01:00:40 10° WSW 01:01:19 10° SW 01:01:57 10° SW visible
23 Oct - 15:00:12 10° SSE 15:01:57 13° SE 15:03:41 10° ESE daylight
23 Oct - 16:38:09 10° SW 16:41:58 85° NNW 16:45:44 10° NE daylight
23 Oct - 18:19:53 10° WNW 18:22:52 22° NNW 18:25:52 10° NE daylight
23 Oct - 20:01:51 10° NW 20:04:23 17° N 20:06:58 10° NE daylight
23 Oct - 21:42:09 10° NW 21:45:42 35° NNE 21:49:24 10° E daylight
23 Oct - 23:22:31 10° WNW 23:26:15 42° SW 23:30:10 10° SSE daylight
